Hourly Data Report for July 05, 2021

TORONTO CITY CENTRE
ONTARIO
Current Station Operator: NAVCAN

43°37'39.000" N
79°23'46.000" W
76.80 m
6158359
71265
YTZ

Download Data

Hourly Data (July 2021)
Hourly Data Report for July 5, 2021
TIME
LST
Temp Definition
°C
Dew Point Definition
°C
Rel Hum Definition
%
Precip. Amount Definition
mm

Wind Dir Definition
10's deg

Wind Spd Definition
km/h
Visibility Definition
km
Stn Press Definition
kPa
Hmdx Definition


Wind Chill Definition


Weather Definition


00:00 18.8 16.3 85 0.0 7 17 16.1 100.54     LegendNANA
01:00 18.8 16.4 86 0.0 7 15 16.1 100.53     LegendNANA
02:00 19.0 16.0 83 0.0 7 15 16.1 100.51     LegendNANA
03:00 19.0 15.9 82 0.0 8 13 16.1 100.48     LegendNANA
04:00 18.9 15.8 82 0.0 7 15 16.1 100.45     LegendNANA
05:00 18.6 16.1 85 0.0 6 13 16.1 100.48     LegendNANA
06:00 19.0 16.5 85 0.0 7 13 16.1 100.47     LegendNANA
07:00 19.3 16.9 86 0.0 7 8 16.1 100.48     LegendNANA
08:00 20.4 17.7 84 0.0 8 11 16.1 100.48 26   LegendNANA
09:00 21.2 18.6 85 0.0 6 13 16.1 100.47 28   LegendNANA
10:00 22.2 19.0 82 0.0 8 13 16.1 100.49 29   LegendNANA
11:00 22.3 19.1 82 0.0 8 15 16.1 100.43 29   LegendNANA
12:00 22.9 18.8 77 0.0 7 17 16.1 100.39 30   LegendNANA
13:00 22.9 19.2 79 0.0 8 17 16.1 100.32 30   LegendNANA
14:00 23.4 19.6 79 0.0 8 15 16.1 100.29 31   LegendNANA
15:00 24.3 20.1 77 0.0 7 18 16.1 100.20 32   LegendNANA
16:00 24.9 20.8 78 0.0 20 5 16.1 100.12 33   LegendNANA
17:00 24.5 20.2 77 0.0 23 11 16.1 100.09 32   LegendNANA
18:00 22.7 19.5 82 0.0 22 18 16.1 100.16 30   LegendNANA
19:00 22.2 19.2 83 0.0 21 9 16.1 100.16 29   Thunderstorms, Rain
20:00 24.6 20.5 77 0.0 13 9 16.1 100.22 33   LegendNANA
21:00 23.4 19.6 79 0.0 12 13 16.1 100.21 31   LegendNANA
22:00 21.2 19.1 88 0.0 5 9 16.1 100.19 28   LegendNANA
23:00 21.7 19.7 88 0.0 LegendMM 4 16.1 100.18 29   LegendNANA

Notes on Data Quality.

Legend

  • E = Estimated
  • M = Missing
  • NA = Not Available*
  • [empty] = Indicates an unobserved value
Date modified: